Location: Songkhla
(7.2000°N, 100.6000°E)
Time: 03:56:20
(UTC+07:00)

BRICSAT 2 - Pass Details

Date: 20 June 2021
Orbit: 295 x 638 km, 28.5° (Epoch: 28 July)

Event Time Altitude Azimuth Distance (km) Brightness Sun altitude
Rises 20:22:15 0° 313° (NW) 2,613 ? -24.5°
Reaches altitude 10° 20:24:33 10° 324° (NW) 1,791 ? -25.0°
Enters shadow 20:27:49 31° 13° (NNE) 1,005 ? -25.7°
Maximum altitude 20:28:21 32° 28° (NNE) 991 - -25.9°
Drops below altitude 10° 20:32:29 10° 92° (E) 1,968 - -26.7°
Sets 20:35:07 0° 102° (ESE) 2,915 - -27.3°
